FW9082 Weather Reports


Display with metric or nautical units.
time (UTC)temp
F
wind
direction
speed
MPH
gust
MPH
rain 1hr
in
rain 24hr
in
rain mn
in
humidity
%
barometer
mb
20260504184534 73 165 4.0 7.0 0.00 0.00 0.00 39 1011.7
20260504183034 73 298 2.0 7.0 0.00 0.00 0.00 40 1011.9
20260504181530 72 309 3.0 9.0 0.00 0.00 0.00 39 1012.2
20260504180032 73 267 2.0 8.0 0.00 0.00 0.00 41 1012.3
20260504174532 72 272 2.0 7.0 0.00 0.00 0.00 40 1012.4
20260504173035 72 259 2.0 5.0 0.00 0.00 0.00 38 1012.6
20260504171531 71 252 2.0 8.0 0.00 0.00 0.00 43 1013.0
20260504081534 44 0 0.0 0.0 0.00 0.00 0.00 86 1015.6
20260504044533 46 0 0.0 1.0 0.00 0.00 0.00 73 1015.7
20260504043032 45 0 0.0 0.0 0.00 0.00 0.00 74 1015.5
20260504041532 45 0 0.0 0.0 0.00 0.00 0.00 73 1015.4
20260504040033 45 0 0.0 1.0 0.00 0.00 0.00 74 1015.3
20260504034533 45 0 0.0 0.0 0.00 0.00 0.00 73 1015.2
20260504033038 44 0 0.0 0.0 0.00 0.00 0.00 74 1014.9
20260504031533 44 0 0.0 0.0 0.00 0.00 0.00 71 1015.0
20260504030032 45 0 0.0 0.0 0.00 0.00 0.00 70 1014.8
20260504024532 45 0 0.0 0.0 0.00 0.00 0.00 70 1014.8
20260504023031 46 0 0.0 0.0 0.00 0.00 0.00 68 1014.9
20260504021534 45 0 0.0 1.0 0.00 0.00 0.00 70 1014.9
20260504020032 46 0 0.0 0.0 0.00 0.00 0.00 67 1014.9
20260504014545 46 0 0.0 0.0 0.00 0.00 0.00 66 1014.9
20260504013034 47 0 0.0 0.0 0.00 0.00 0.00 65 1014.8
20260504011530 48 0 0.0 0.0 0.00 0.00 0.00 63 1014.6
20260504010028 48 0 0.0 0.0 0.00 0.00 0.00 62 1014.5
20260504004533 49 0 0.0 0.0 0.00 0.00 0.00 60 1014.4
20260504003032 51 0 0.0 0.0 0.00 0.00 0.00 56 1014.3
20260504001537 53 0 0.0 0.0 0.00 0.00 0.00 52 1014.2
20260504000039 54 0 0.0 0.0 0.00 0.00 0.00 50 1014.0
20260503234532 55 0 0.0 0.0 0.00 0.00 0.00 50 1013.8
20260503233032 56 0 0.0 0.0 0.00 0.00 0.00 46 1013.7
20260503231541 58 252 0.0 2.0 0.00 0.00 0.00 43 1013.6
20260503230033 59 0 0.0 3.0 0.00 0.00 0.00 41 1013.7
20260503224536 60 13 1.0 4.0 0.00 0.00 0.00 38 1013.6
20260503223031 61 219 1.0 7.0 0.00 0.00 0.00 38 1013.6
20260503221537 61 348 1.0 8.0 0.00 0.00 0.00 37 1013.6
20260503220032 62 191 1.0 10.0 0.00 0.00 0.00 35 1013.6
20260503214533 62 111 1.0 11.0 0.00 0.00 0.00 38 1013.6
20260503213034 62 292 2.0 6.0 0.00 0.00 0.00 36 1013.5
20260503211532 62 31 2.0 8.0 0.00 0.00 0.00 40 1013.5
20260503210044 62 248 3.0 9.0 0.00 0.00 0.00 36 1013.5
20260503204532 61 243 2.0 8.0 0.00 0.00 0.00 38 1013.5
20260503203031 61 66 3.0 11.0 0.00 0.00 0.00 38 1013.7
20260503201534 61 248 2.0 7.0 0.00 0.00 0.00 39 1013.9
20260503200040 61 11 3.0 9.0 0.00 0.00 0.00 37 1014.0
20260503194534 61 291 2.0 7.0 0.00 0.00 0.00 39 1014.1
20260503193032 61 211 2.0 10.0 0.00 0.00 0.00 37 1014.2
20260503191531 60 147 5.0 14.0 0.00 0.00 0.00 37 1014.3
20260503190037 60 60 3.0 13.0 0.00 0.00 0.00 43 1014.5